Voltar ao catálogo

GORIZONT 4

AtivoComunicaçõesGEO
NORAD 11841·PAYLOAD·🇷🇺 Russia

Lançado Jun 14, 1980 de Baikonur Cosmodrome

Loading…

TLE

AtualizadoSource: Space-Track

Época: Sep 14, 2026, 12:50 UTC

1 11841U 80049A   26257.53537828 -.00000248  00000-0  00000-0 0  9994
2 11841   6.9807 294.6146 0003777 345.8617  68.5020  0.98632375234404

Acompanhe GORIZONT 4 em tempo real com AllMySat

Download on the App Store